FW9298 Weather Reports


Display with metric or nautical units.
time (UTC)temp
F
wind
direction
speed
MPH
gust
MPH
rain 1hr
in
rain 24hr
in
rain mn
in
humidity
%
barometer
mb
20260504151016 75 123 5.0 12.0 0.00 0.00 0.00 42 1018.1
20260504141017 73 98 8.0 13.0 0.00 0.00 0.00 46 1018.2
20260504081037 55 34 1.0 2.0 0.00 0.00 0.00 89 1017.0
20260504050017 61 74 1.0 2.0 0.00 0.00 0.00 74 1018.2
20260504045017 61 77 1.0 3.0 0.00 0.00 0.00 73 1018.3
20260504044037 61 66 1.0 4.0 0.00 0.00 0.00 73 1018.4
20260504043037 61 73 1.0 3.0 0.00 0.00 0.00 72 1018.5
20260504042038 62 66 1.0 3.0 0.00 0.00 0.00 71 1018.5
20260504041017 62 46 1.0 5.0 0.00 0.00 0.00 71 1018.5
20260504040017 62 340 1.0 3.0 0.00 0.00 0.00 70 1018.4
20260504035016 62 26 1.0 2.0 0.00 0.00 0.00 69 1018.4
20260504034016 63 84 1.0 2.0 0.00 0.00 0.00 69 1018.4
20260504033016 63 78 1.0 2.0 0.00 0.00 0.00 67 1018.4
20260504032036 63 43 1.0 5.0 0.00 0.00 0.00 68 1018.3
20260504031017 63 65 1.0 2.0 0.00 0.00 0.00 66 1018.0
20260504030016 64 308 1.0 2.0 0.00 0.00 0.00 63 1018.0
20260504025017 64 10 1.0 2.0 0.00 0.00 0.00 61 1018.0
20260504024037 64 337 1.0 4.0 0.00 0.00 0.00 61 1017.9
20260504023017 65 24 0.0 1.0 0.00 0.00 0.00 58 1017.7
20260504022023 66 71 1.0 1.0 0.00 0.00 0.00 56 1017.6
20260504021037 67 66 1.0 2.0 0.00 0.00 0.00 53 1017.7
20260504020018 67 37 2.0 3.0 0.00 0.00 0.00 51 1017.5
20260504015018 66 25 2.0 4.0 0.00 0.00 0.00 52 1017.3
20260504014018 65 23 1.0 3.0 0.00 0.00 0.00 57 1017.2
20260504013018 67 84 2.0 5.0 0.00 0.00 0.00 54 1016.9
20260504012016 67 307 1.0 2.0 0.00 0.00 0.00 49 1016.7
20260504011016 68 301 1.0 2.0 0.00 0.00 0.00 50 1016.5
20260504010016 69 336 1.0 3.0 0.00 0.00 0.00 47 1016.2
20260504005016 69 342 1.0 2.0 0.00 0.00 0.00 48 1016.1
20260504004016 69 1 0.0 2.0 0.00 0.00 0.00 48 1016.1
20260504003016 70 320 0.0 3.0 0.00 0.00 0.00 47 1016.0
20260504002016 71 300 1.0 2.0 0.00 0.00 0.00 44 1015.9
20260504001056 72 340 1.0 2.0 0.00 0.00 0.00 43 1015.8
20260504000016 73 317 1.0 3.0 0.00 0.00 0.00 41 1015.8
20260503235016 73 337 1.0 3.0 0.00 0.00 0.00 39 1015.8
20260503234017 74 13 2.0 6.0 0.00 0.00 0.00 38 1015.7
20260503233017 75 2 3.0 6.0 0.00 0.00 0.00 37 1015.8
20260503232017 76 4 4.0 7.0 0.00 0.00 0.00 35 1015.9
20260503231017 77 8 3.0 7.0 0.00 0.00 0.00 35 1015.9
20260503230018 77 15 3.0 5.0 0.00 0.00 0.00 34 1015.9
20260503225018 78 351 3.0 8.0 0.00 0.00 0.00 34 1015.7
20260503224018 78 24 2.0 4.0 0.00 0.00 0.00 33 1015.7
20260503223038 79 22 4.0 6.0 0.00 0.00 0.00 32 1015.6
20260503222019 80 326 2.0 5.0 0.00 0.00 0.00 30 1015.7
20260503221018 79 349 2.0 7.0 0.00 0.00 0.00 31 1015.7
20260503220018 79 357 2.0 5.0 0.00 0.00 0.00 31 1015.9
20260503215016 79 9 4.0 6.0 0.00 0.00 0.00 32 1016.0
20260503214016 79 36 5.0 8.0 0.00 0.00 0.00 33 1015.9
20260503213016 80 42 3.0 8.0 0.00 0.00 0.00 30 1015.9
20260503212016 79 68 4.0 7.0 0.00 0.00 0.00 31 1015.9
20260503211017 79 43 5.0 11.0 0.00 0.00 0.00 32 1016.0
20260503210018 79 31 5.0 8.0 0.00 0.00 0.00 31 1016.0
20260503205037 78 9 3.0 6.0 0.00 0.00 0.00 31 1016.1
20260503204017 79 42 6.0 9.0 0.00 0.00 0.00 32 1016.1
20260503203017 78 60 4.0 9.0 0.00 0.00 0.00 33 1016.1
20260503202017 78 76 4.0 9.0 0.00 0.00 0.00 33 1016.3
20260503201017 78 79 5.0 9.0 0.00 0.00 0.00 33 1016.5
20260503200018 78 55 6.0 12.0 0.00 0.00 0.00 33 1016.6
20260503195018 78 74 7.0 10.0 0.00 0.00 0.00 34 1016.6
20260503194018 78 56 1.0 5.0 0.00 0.00 0.00 32 1016.9
20260503193038 77 19 5.0 9.0 0.00 0.00 0.00 33 1017.0
20260503192019 77 50 5.0 11.0 0.00 0.00 0.00 33 1017.1
20260503191018 77 72 6.0 9.0 0.00 0.00 0.00 34 1017.3
20260503190016 77 35 7.0 11.0 0.00 0.00 0.00 35 1017.4
20260503185016 76 45 7.0 14.0 0.00 0.00 0.00 35 1017.7
20260503184036 76 116 7.0 10.0 0.00 0.00 0.00 35 1017.8
20260503183016 76 57 6.0 12.0 0.00 0.00 0.00 37 1017.9
20260503182018 76 65 4.0 7.0 0.00 0.00 0.00 35 1018.0
20260503181016 75 43 5.0 10.0 0.00 0.00 0.00 37 1018.1
20260503180016 75 47 6.0 11.0 0.00 0.00 0.00 41 1018.2
20260503175037 75 46 6.0 9.0 0.00 0.00 0.00 40 1018.3
20260503174017 74 51 5.0 9.0 0.00 0.00 0.00 41 1018.4
20260503173017 74 49 7.0 15.0 0.00 0.00 0.00 42 1018.4
20260503172017 73 33 5.0 10.0 0.00 0.00 0.00 45 1018.6
20260503171018 73 56 7.0 12.0 0.00 0.00 0.00 47 1018.7